Regional Weather Roundup
Issued by NWS Upton, NY

Current Version | Previous Version | Text Only | Print | Product List | Glossary On
Versions: 1 2 3 4 5 6 7 8 9 10 11 12 13 14 15 16 17 18 19 20 21 22 23 24 25 26 27
000
ASUS41 KOKX 201609
RWROKX

REGIONAL WEATHER ROUNDUP
NATIONAL WEATHER SERVICE NEW YORK NY
1200 PM EDT THU JUL 20 2017

NOTE: "FAIR" INDICATES FEW OR NO CLOUDS BELOW 12,000 FEET WITH NO
SIGNIFICANT WEATHER AND/OR OBSTRUCTIONS TO VISIBILITY.

NYZ071-072-176-178-NJZ106-104-201700-
NEW YORK CITY METRO AREA

CITY           SKY/WX    TMP DP  RH WIND       PRES   REMARKS
Central Park   MOSUNNY   91  70  49 CALM      29.99F HX  96
Bronx Bot Gard   N/A     90  66  45 SW2       29.98S HX  92
LaGuardia APRT PTSUNNY   93  68  43 W9        29.95F HX  97
Kennedy INTL   PTSUNNY   91  74  57 S8        29.97F HX 100
Breezy Point     N/A     82 N/A N/A SW7         N/A
Newark/Liberty PTSUNNY   94  66  39 SW8       29.95F HX  97
Teterboro      NOT AVBL
$$

NYZ177-179-078>081-201700-
LONG ISLAND NEW YORK

CITY           SKY/WX    TMP DP  RH WIND       PRES   REMARKS
Jones Beach      N/A     82 N/A N/A W8          N/A
Matinecock PT    N/A     82 N/A N/A E2          N/A
Farmingdale    SUNNY     90  69  50 SW8       29.96F HX  94
MacArthur/ISP  PTSUNNY   91  66  43 S7        29.96F HX  93
Shirley        SUNNY     92  65  40 S8        29.97F HX  94
Mt Sinai Harb    N/A     84 N/A N/A N2          N/A
Westhampton    SUNNY     90  65  43 S8        29.98F HX  92
East Hampton   FAIR      87  65  47 S6        29.96F
Montauk          N/A     86  69  56 VRB3      29.97F HX  90
$$

NYZ052-065-067-201700-
HUDSON VALLEY

CITY           SKY/WX    TMP DP  RH WIND       PRES   REMARKS
White Plains   MOSUNNY   90  68  48 VRB6      29.98S HX  93
Larchmont Harb   N/A     79 N/A N/A NE3         N/A
Croton O-T Hud   N/A     88 N/A N/A SW1         N/A
Newburgh       MOSUNNY   88  73  62 W6        30.00S HX  96
Montgomery     SUNNY     88  71  57 W9        29.96F HX  94
Poughkeepsie   MOSUNNY   87  69  54 SW7       29.95F HX  91
Albany         NOT AVBL
$$

NJZ001-105-106-008-010-013-015-019>022-104-201700-
NEW JERSEY

CITY           SKY/WX    TMP DP  RH WIND       PRES   REMARKS
Newark/Liberty PTSUNNY   94  66  39 SW8       29.95F HX  97
Teterboro      NOT AVBL
Caldwell       MOSUNNY   91  68  46 W10G17    29.97F HX  95
Somerville     SUNNY     91  71  51 VRB5      29.96F HX  97
Linden         NOT AVBL
Perth Amboy      N/A     88 N/A N/A W5          N/A
Sussex         SUNNY     86  69  56 SW5       29.99S HX  90
Andover          N/A     86  68  54 VRB6      30.00F
Trenton        SUNNY     90  74  59 CALM      29.97F HX  99
Millville      SUNNY     90  77  65 SW7       30.00S HX 103
Atlantic City  SUNNY     92  73  53 W8        29.99F HX 100
Wrightstown    SUNNY     92  73  53 W5        29.95F HX 100
Toms River     MOSUNNY   95  71  45 W15       29.98F HX 102
Belmar         SUNNY     91  74  57 W7        29.98F HX 100
$$

PAZ047>061-062-071-201700-
EASTERN PENNSYLVANIA

CITY           SKY/WX    TMP DP  RH WIND       PRES   REMARKS
Philadelphia   PTSUNNY   92  71  50 SW13      29.98F HX  98
Allentown      NOT AVBL
Scranton       SUNNY     84  68  58 SW8       30.01F
$$

CTZ002-004>006-009-010-012-RIZ004-006-007-MAZ004-011-015-201700-
SOUTHERN NEW ENGLAND
 IN CT

CITY           SKY/WX    TMP DP  RH WIND       PRES   REMARKS
Bradley INTL   NOT AVBL
Hartford       MOSUNNY  N/A N/A N/A MISG      29.95S
Danbury        SUNNY     87  69  54 W8        30.00S HX  91
Wtrbury/Oxford MOSUNNY   86  68  54 W6        30.00F
Bridgeport     SUNNY     86  65  49 SW7       29.96F
Meriden        SUNNY     88  68  51 S8        29.96S HX  91
New Haven      SUNNY     85  65  51 S7        29.97S
Chester        FAIR      88  66  48 SW7       29.98S HX  90
Groton         MOSUNNY   85  66  53 SW7       29.95F
Wilimantic     MOSUNNY   90  66  45 W3        29.95F HX  92

 IN RI

CITY           SKY/WX    TMP DP  RH WIND       PRES   REMARKS
Providence     NOT AVBL
Block Island   MOSUNNY   85  66  53 W9        29.97F
Westerly       MOSUNNY   88  65  46 VRB7      29.97F HX  90
 IN MA

CITY           SKY/WX    TMP DP  RH WIND       PRES   REMARKS
Boston         PTSUNNY   89  64  43 NW10      29.92F HX  90
Worcester      PTSUNNY   82  64  54 W10       29.99S
Westfield      MOSUNNY   88  69  53 S7        29.95S HX  92
Provincetown   MOSUNNY   84  68  58 SW7       29.94F
Nantucket      MOSUNNY   80  69  69 SW9       29.95F
$$

ANZ330-335-338-340-345-350-353-355-201700-
COASTAL MARINE OBSERVATIONS


STATION/POSITION TIME  SKY/WX   TEMP    WIND        PRES    VSBY  WAVE
                                AIR SEA DIR/SP/G                  HT/PER
                 (UTC)          (F)     (DEG/KT/KT) (MB)    (MI)  (FT/S)
NY HARB ENTRANCE 1450            77 76  270/  4/  4 1015.0          2/ 5
20 S FIRE ISLAND 1550            76 76  240/  4/  4 1014.7          3/ 4
GREAT SOUTH BAY  1515            82 83  240/  4/  6   N/A
23 SSW MONTAUK P 1450            76 76              1015.3          3/ 5
15 E BARNEGAT LI 1530               79                N/A           3/15
HUDSON CANYON    1450            79 79  230/  8/ 10 1015.2          3/ 5
KINGS POINT      1524            85 71   CALM  /  2 1014.6
EXECUTION ROCKS  1515            80      CALM  /  2   N/A
CENTRAL LI SOUND NOT AVBL
EASTERN LI SOUND NOT AVBL
ROBBINS REEF     1524                   160/  5/  5 1015.6
$$


>>>>>>>>>>>>>>>>>>>>>>>>>>>> KEY <<<<<<<<<<<<<<<<<<<<<<<<<<<
>                                                          <
>     SKY/WX - Sky Condition/Present Weather               <
>     TMP    - Temperature in Fahrenheit                   <
>     DP     - Dew Point in Fahrenheit                     <
>     RH     - Relative Humidity in Percent                <
>     WIND   - Direction (from) and Speed in MPH           <
>     PRES   - Mean Sea Level Pressure (inches of Hg)      <
>     WCI    - Wind Chill Index                            <
>     VSB    - VISIBILITY IN MILES                         <
>     HX     - HEAT INDEX                                  <
>     TC     - TEMPERATURE IN CELSIUS                      <
>     VRB    - VARIABLE WIND DIRECTION                     <
>                                                          <
>>>>>>>>>>>>>>>>>>>>>>>>>>>> KEY <<<<<<<<<<<<<<<<<<<<<<<<<<<




USA.gov is the U.S. government's official web portal to all federal, state and local government web resources and services.